Airfield :
LOGIN :

Register | Disclaimer

   EN    FR    IT 

 










Legend :    VFR   Marginal VFR   IFR   Intensive IFR   Very Intensive IFR
Visi :
Ceiling :
>= 8 km
>= 3000ft
5 to 8 km
1000 to 3000 ft
1500m to 5 km
500 to 1000 ft
800 to 1500m
200 to 500 ft
< 800m
< 200 ft
Symbols :   Thunderstorms  Fog  Heavy snow  Heavy precipitations  Wind > 20 kt
SIGMETs :     Misc.  Thunderstorms  Icing  Turbulence  Mountain Waves  Volcanic Ashes






- Airport Elevation : 915 ft
- IATA code : LUG


LSZA - Lugano

CURRENT METAR :
  • 050650Z VRB01KT 8000 NSC 02/01 Q1017 NOSIG

EXPIRED METARs :
  • 050620Z AUTO 35003KT 320V040 4100 BR NCD 00/M01 Q1017
  • 050550Z AUTO VRB01KT 4200 BR NCD 02/01 Q1017
  • 050520Z AUTO VRB02KT 4400 BR NCD 01/M00 Q1017
  • 050450Z AUTO VRB01KT 4000 BR NCD 02/01 Q1017
  • 050420Z AUTO 02002KT 2900 BR NCD 02/01 Q1017

TAF TAF LSZA
Valid from the 05 at 06:00 until the 05 at 15:00 UTC


050525Z 0506/0515 VRB02KT 4000 BR NSC
BECMG 0506/0508 CAVOK
ATIS : +41 22 417 40 88



MET'MAP, your aeronautical weather chart ! - Copyright ORBIFLY December 2007 - Disclaimer

ORBIFLY MET'MAP TEAM :

Programming & Development : Alexandra Zaïnal
Concept & original design : Baudouin d'Aumeries
Assistance for programming : Marc-Olivier Méhu
Technical & hardware support : Manuel Goepfert

Contact : metmap@orbifly.com




SOURCES & CREDITS :

   NOAA